Content
SEND FEEDBACK

Daily
Averages
Monthly
Summary
United States of America

BERKELEY, MISSOURI


Home > North America > United States > Missouri
Elevation: 564 feet     Latitude: 38 45N     Longitude: 090 22W

WEATHER
 
SELECT A DAY
Number of Records: 203,490;   Date Range: 1/1/95 - 8/12/14
 
SHARE

PRINT THIS DATA

[ ← Previous Day ]
WEATHER ALMANAC - FEBRUARY 16, 2013
[ Next Day → ]
[ °C ]   °F
Weather ElementAverageHighLow
Temperature28.9 °F37 °F (3:51 pm)21.9 °F (5:51 am)
Dewpoint11.5 °F14 °F (1:51 am)8.1 °F (3:51 pm)
Humidity49.9 %66 % (5:51 am)30 % (3:51 pm)
Barometer30.26 in30.31 in (7:51 am)30.21 in (4:51 pm)
Wind Speed6.9 mph13.8 mph (12:51 pm)
Wind Gust19.6 mph (11:51 am)
Weather ElementAverage
Visibility10 mi
Wind DirectionW (272.3 °)

Weather ElementTotal
Precipitation---
Heating Degree Days35.6 (Base 65)
Averaged from 22 records on February 16, 2013
WEATHER CONDITIONS BREAKOUT
WIND DIRECTION BREAKOUT
WEATHER BY HOUR - FEBRUARY 16, 2013
[ °C ]   °F
Local TimeTemperatureDewpointHumidityBarometerVisibilityWind DirectionWind SpeedGust SpeedPrecipitationEventsConditions
1:51 AM25.0 °F14.0 °F63 %30.27 in10.0 miNNW (330°)6.9 mphScattered Clouds
2:51 AM25.0 °F12.9 °F60 %30.27 in10.0 miNNW (330°)6.9 mphPartly Cloudy
3:51 AM25.0 °F12.0 °F58 %30.27 in10.0 miNNW (330°)9.2 mphPartly Cloudy
4:51 AM23.0 °F12.9 °F65 %30.27 in10.0 miNW (320°)3.5 mphPartly Cloudy
5:51 AM21.9 °F12.0 °F66 %30.28 in10.0 miNNW (340°)5.8 mphClear
6:51 AM21.9 °F12.0 °F66 %30.29 in10.0 miNNW (330°)10.4 mphPartly Cloudy
7:51 AM23.0 °F10.9 °F60 %30.31 in10.0 miNNW (340°)8.1 mphPartly Cloudy
8:51 AM25.0 °F12.9 °F60 %30.31 in10.0 miNNW (330°)9.2 mphPartly Cloudy
9:51 AM27.0 °F12.0 °F53 %30.31 in10.0 miNW (320°)9.2 mphPartly Cloudy
10:51 AM30.0 °F12.0 °F47 %30.31 in10.0 miWNW (300°)6.9 mphClear
11:51 AM30.9 °F10.0 °F42 %30.29 in10.0 miNW (320°)12.7 mph19.6 mphClear
12:51 PM34.0 °F10.0 °F37 %30.26 in10.0 miNW (320°)13.8 mphClear
1:51 PM36.0 °F9.0 °F33 %30.23 in10.0 miWNW (300°)10.4 mphPartly Cloudy
2:51 PM36.0 °F9.0 °F33 %30.22 in10.0 miNW (310°)9.2 mphPartly Cloudy
3:51 PM37.0 °F8.1 °F30 %30.22 in10.0 miWNW (300°)9.2 mphPartly Cloudy
4:51 PM36.0 °F8.1 °F31 %30.21 in10.0 miWNW (300°)6.9 mphPartly Cloudy
5:51 PM33.1 °F10.0 °F38 %30.22 in10.0 miNW (310°)6.9 mphPartly Cloudy
6:51 PM30.9 °F10.9 °F43 %30.22 in10.0 miNNW (330°)3.5 mphClear
7:51 PM30.9 °F12.9 °F47 %30.23 in10.0 miCalmClear
8:51 PM28.9 °F12.9 °F51 %30.24 in10.0 miSW (230°)3.5 mphClear
9:51 PM28.0 °F14.0 °F56 %30.24 in10.0 miCalmClear
10:51 PM27.0 °F14.0 °F58 %30.23 in10.0 miCalmClear
Hourly data recorded from KSTL, located miles away from Berkeley, Missouri







STORIES FROM OUR PARTNERS